This is the latest recevied weather packets stored in our database for station/object DM1RG-6. If no packets are shown the sender has not sent any weather packets the latest 10 day(s).
| Time | Temp. | Humidity | Pressure | Rain* | Wind** | Luminosity | Snow |
|---|---|---|---|---|---|---|---|
| 1777703403 | 16.11° C | 57% | 1023 hPa | 0 mm | - | - | - |
| 1777703044 | 16.11° C | 59% | 1022.9 hPa | 0 mm | - | - | - |
| 1777702684 | 15.56° C | 59% | 1022.8 hPa | 0 mm | - | - | - |
| 1777702323 | 15.56° C | 61% | 1022.9 hPa | 0 mm | - | - | - |
| 1777701963 | 14.44° C | 63% | 1022.6 hPa | 0 mm | - | - | - |
| 1777701603 | 14.44° C | 64% | 1023.1 hPa | 0 mm | - | - | - |
| 1777701244 | 14.44° C | 64% | 1022.6 hPa | 0 mm | - | - | - |
| 1777700883 | 13.89° C | 69% | 1022.9 hPa | 0 mm | - | - | - |
| 1777700523 | 13.33° C | 69% | 1023 hPa | 0 mm | - | - | - |
| 1777700163 | 12.78° C | 71% | 1023 hPa | 0 mm | - | - | - |
| 1777699803 | 12.22° C | 73% | 1023 hPa | 0 mm | - | - | - |
| 1777699443 | 11.67° C | 74% | 1023.1 hPa | 0 mm | - | - | - |
| 1777699083 | 11.11° C | 77% | 1023 hPa | 0 mm | - | - | - |
| 1777698723 | 10° C | 79% | 1022.9 hPa | 0 mm | - | - | - |
| 1777698363 | 8.89° C | 82% | 1022.8 hPa | 0 mm | - | - | - |
| 1777698003 | 8.33° C | 84% | 1022.7 hPa | 0 mm | - | - | - |
| 1777697643 | 7.78° C | 86% | 1023.1 hPa | 0 mm | - | - | - |
| 1777697284 | 7.22° C | 88% | 1023.1 hPa | 0 mm | - | - | - |
| 1777696923 | 6.67° C | 90% | 1022.9 hPa | 0 mm | - | - | - |
| 1777696563 | 6.11° C | 90% | 1023.1 hPa | 0 mm | - | - | - |
| 1777696203 | 6.11° C | 93% | 1022.9 hPa | 0 mm | - | - | - |
| 1777695843 | 5.56° C | 93% | 1022.9 hPa | 0 mm | - | - | - |
| 1777695483 | 5° C | 94% | 1023 hPa | 0 mm | - | - | - |
| 1777695124 | 5° C | 95% | 1023.1 hPa | 0 mm | - | - | - |
| 1777694763 | 4.44° C | 95% | 1023.1 hPa | 0 mm | - | - | - |
* Rain latest hour (hover to see other rain measurements)
** Current wind speed in m/s (hover to see current wind gust speed)